TimeCST,TemperatureF,Dew PointF,Humidity,Sea Level PressureIn,VisibilityMPH,Wind Direction,Wind SpeedMPH,Gust SpeedMPH,PrecipitationIn,Events,Conditions,WindDirDegrees,DateUTC
12:56 AM,50.0,50.0,100,30.12,7.0,Calm,Calm,-,N/A,,Clear,0,2013-01-10 06:56:00
1:56 AM,46.9,46.9,100,30.11,3.0,Calm,Calm,-,N/A,,Clear,0,2013-01-10 07:56:00
2:56 AM,46.9,46.9,100,30.12,10.0,North,4.6,-,N/A,,Clear,350,2013-01-10 08:56:00
3:56 AM,46.9,45.9,96,30.11,10.0,NW,5.8,-,N/A,,Clear,320,2013-01-10 09:56:00
4:56 AM,45.9,45.0,97,30.10,10.0,Calm,Calm,-,N/A,,Clear,0,2013-01-10 10:56:00
5:56 AM,45.0,43.0,93,30.09,10.0,East,3.5,-,N/A,,Clear,90,2013-01-10 11:56:00
6:56 AM,43.9,41.9,93,30.09,10.0,Calm,Calm,-,N/A,,Clear,0,2013-01-10 12:56:00
7:56 AM,43.9,43.9,100,30.11,10.0,Calm,Calm,-,N/A,,Clear,0,2013-01-10 13:56:00
8:56 AM,48.2,46.4,93,30.13,10.0,North,3.5,-,N/A,,Clear,350,2013-01-10 14:56:00
9:56 AM,54.9,45.0,69,30.12,10.0,NW,5.8,-,N/A,,Clear,320,2013-01-10 15:56:00
10:56 AM,59.0,45.0,60,30.11,10.0,WNW,9.2,-,N/A,,Clear,300,2013-01-10 16:56:00
11:56 AM,66.9,45.0,45,30.06,10.0,WNW,13.8,-,N/A,,Clear,290,2013-01-10 17:56:00
12:56 PM,68.9,43.9,40,30.04,10.0,West,11.5,-,N/A,,Clear,260,2013-01-10 18:56:00
1:56 PM,70.9,41.0,34,30.02,10.0,West,4.6,-,N/A,,Clear,260,2013-01-10 19:56:00
2:56 PM,72.0,41.0,33,30.01,10.0,Calm,Calm,-,N/A,,Clear,0,2013-01-10 20:56:00
3:56 PM,72.9,39.9,30,30.01,10.0,NE,3.5,-,N/A,,Clear,50,2013-01-10 21:56:00
4:56 PM,72.9,41.0,32,30.00,10.0,ESE,4.6,-,N/A,,Clear,120,2013-01-10 22:56:00
5:56 PM,68.9,43.0,39,30.00,10.0,East,4.6,-,N/A,,Clear,90,2013-01-10 23:56:00
6:56 PM,63.9,43.9,48,30.01,10.0,SE,5.8,-,N/A,,Clear,130,2013-01-11 00:56:00
7:56 PM,61.0,43.9,53,30.02,10.0,ESE,3.5,-,N/A,,Clear,120,2013-01-11 01:56:00
8:56 PM,57.9,43.9,60,30.02,10.0,ESE,6.9,-,N/A,,Clear,110,2013-01-11 02:56:00
9:56 PM,57.9,45.9,64,30.03,10.0,SSE,8.1,-,N/A,,Clear,150,2013-01-11 03:56:00
10:56 PM,57.2,48.2,72,30.05,10.0,SSE,11.5,-,N/A,,Clear,150,2013-01-11 04:56:00
11:56 PM,57.2,53.6,88,30.05,10.0,SSE,10.4,-,N/A,,Clear,160,2013-01-11 05:56:00